Weather Service Report


720 
ASUS41 KCTP 250110
RWRCTP

REGIONAL WEATHER ROUNDUP
NATIONAL WEATHER SERVICE STATE COLLEGE PA
800 PM EST MON NOV 24 2014

Note: "fair" indicates few or no clouds below 12,000 feet with no 
significant weather and/or obstructions to visibility.

* = STATION THAT DOES NOT REPORT PRECIPITATION /E.G. RAIN...SNOW...ETC/
    THUNDER OR FOG.

PAZ002>004-007>009-013>016-020>023-029>032-250200-
WESTERN PENNSYLVANIA
  
CITY           SKY/WX    TMP DP  RH WIND       PRES   REMARKS
ERIE           MOCLDY    48  32  53 SW14G26   29.63R                  
MEADVILLE      CLEAR     45  32  60 SW17G31   29.65R                  
FRANKLIN*      CLEAR     46  34  61 SW13G25   29.68R                  
NEW CASTLE       N/A     46  35  65 W14G21    29.72R                  
BEAVER COUNTY  PTCLDY    48  37  66 W10G16    29.71R                  
BUTLER*        CLEAR     52  37  58 W14G24    29.71R                  
PITTSBURGH INT PTCLDY    51  39  63 W15G25    29.71R                  
PITTSBURGH     CLEAR     56  30  37 SW16G32   29.69R                  
INDIANA*       CLEAR     57  41  54 W14       29.70R                  
LATROBE        CLEAR     57  37  47 W14       29.70R                  
WASHINGTON CO* CLEAR     54  34  47 SW14G25   29.73R                  
$$

PAZ004>006-010>012-017>019-024>028-033>037-041-042-045-046-049>053-250200-
CENTRAL PENNSYLVANIA
  
CITY           SKY/WX    TMP DP  RH WIND       PRES   REMARKS
BRADFORD       CLEAR     51  38  60 SW9G18    29.62R                  
DUBOIS         CLEAR     53  40  61 W16G37    29.63R                  
CLEARFIELD     CLEAR     58  41  53 W13G23    29.64R                  
JOHNSTOWN      CLEAR     56  38  50 SW17G25   29.67R                  
ALTOONA        CLEAR     60  42  51 W16G23    29.68R                  
STATE COLLEGE  PTCLDY    61  43  51 W16G25    29.65R                  
WILLIAMSPORT   MOCLDY    64  50  60 S8        29.59R                  
SELINSGROVE    MOCLDY    63  51  65 S7        29.62R                  
FT INDIANTOWN  CLEAR     51  50  96 NE2       29.66R                  
CAPITAL CITY   CLEAR     67  52  58 S16G23    29.64R                  
HARRISBURG     PTCLDY    65  50  58 VRB5      29.64R                  
YORK           CLEAR     66  51  58 S8G18     29.65R                  
$$

PAZ038>040-043-044-047-048-054-055-060>062-067>071-250200-
EASTERN PENNSYLVANIA
  
CITY           SKY/WX    TMP DP  RH WIND       PRES   REMARKS
SCRANTON       PTCLDY    64  50  60 SW12G23   29.61R                  
MOUNT POCONO   CLEAR     57  51  80 SW15G22   29.67R                  
ALLENTOWN      CLEAR     63  53  70 SW9       29.66R                  
QUAKERTOWN*    CLEAR     63  55  77 SW8       29.68S                  
READING        CLEAR     65  52  62 S13G22    29.65R                  
LANCASTER      CLEAR     62  51  67 S9        29.66R                  
COATESVILLE    CLEAR     63  54  72 S9        29.70R                  
POTTSTOWN      CLEAR     64  54  69 S9        29.69R                  
BLUE BELL      CLEAR     64  55  72 S9        29.69R                  
DOYLESTOWN     CLEAR     63  55  75 VRB5      29.68R                  
WILLOW GROVE   NOT AVBL                                               
NORTH PHILA    CLEAR     67  54  63 S13G18    29.72R                  
PHILADELPHIA   CLEAR     64  54  69 S13       29.71R                  
$$

Return to Home page


Western Regional Climate Center, wrcc@dri.edu